Time,TemperatureF,DewpointF,PressureIn,WindDirection,WindDirectionDegrees,WindSpeedMPH,WindSpeedGustMPH,Humidity,HourlyPrecipIn,Conditions,Clouds,dailyrainin,SoftwareType,DateUTC
2013-08-24 00:01:00,67.0,63.6,30.08,NNE,18,0.0,0.0,89,0.00,,,0.00,LWC V2.10 B1813,2013-08-24 04:01:00,
2013-08-24 00:02:00,67.0,63.6,30.08,NNE,18,0.0,0.0,89,0.00,,,0.00,LWC V2.10 B1813,2013-08-24 04:02:00,
2013-08-24 00:03:00,67.0,63.6,30.08,NNE,18,0.0,0.0,89,0.00,,,0.00,LWC V2.10 B1813,2013-08-24 04:03:00,
2013-08-24 00:05:00,67.0,63.6,30.08,NNE,18,0.0,0.0,89,0.00,,,0.00,LWC V2.10 B1813,2013-08-24 04:05:00,
2013-08-24 00:10:00,67.0,64.0,30.09,NNE,18,0.0,0.0,90,0.00,,,0.00,LWC V2.10 B1813,2013-08-24 04:10:00,
2013-08-24 00:15:00,67.2,64.2,30.09,NNE,18,0.0,0.0,90,0.00,,,0.00,LWC V2.10 B1813,2013-08-24 04:15:00,
2013-08-24 00:21:00,67.1,64.1,30.09,NNE,18,0.0,0.0,90,0.00,,,0.00,LWC V2.10 B1813,2013-08-24 04:21:00,
2013-08-24 00:26:00,67.0,64.0,30.09,NNE,18,0.0,0.0,90,0.00,,,0.00,LWC V2.10 B1813,2013-08-24 04:26:00,
2013-08-24 00:30:00,66.9,63.9,30.09,NNE,18,0.0,0.0,90,0.00,,,0.00,LWC V2.10 B1813,2013-08-24 04:30:00,
2013-08-24 00:31:00,66.8,64.1,30.09,NNE,18,1.0,2.0,91,0.00,,,0.00,LWC V2.10 B1813,2013-08-24 04:31:00,
2013-08-24 00:36:00,66.8,64.1,30.09,NNE,18,0.0,0.0,91,0.00,,,0.00,LWC V2.10 B1813,2013-08-24 04:36:00,
2013-08-24 00:40:00,71.4,68.6,29.86,East,90,2.0,4.0,91,0.00,,,0.00,LWC V2.10 B1813,2013-08-24 04:40:00,
2013-08-24 00:50:00,71.4,68.6,29.86,East,90,2.0,4.0,91,0.00,,,0.00,LWC V2.10 B1813,2013-08-24 04:50:00,
2013-08-24 01:00:00,71.4,68.6,29.86,East,90,2.0,4.0,91,0.00,,,0.00,LWC V2.10 B1813,2013-08-24 05:00:00,
2013-08-24 01:10:00,71.4,68.6,29.86,East,90,2.0,4.0,91,0.00,,,0.00,LWC V2.10 B1813,2013-08-24 05:10:00,
2013-08-24 01:20:00,71.4,68.6,29.86,East,90,2.0,4.0,91,0.00,,,0.00,LWC V2.10 B1813,2013-08-24 05:20:00,
2013-08-24 01:30:00,71.4,68.6,29.86,East,90,2.0,4.0,91,0.00,,,0.00,LWC V2.10 B1813,2013-08-24 05:30:00,
2013-08-24 01:40:00,71.4,68.6,29.86,East,90,2.0,4.0,91,0.00,,,0.00,LWC V2.10 B1813,2013-08-24 05:40:00,
2013-08-24 01:50:00,71.4,68.6,29.86,East,90,2.0,4.0,91,0.00,,,0.00,LWC V2.10 B1813,2013-08-24 05:50:00,
2013-08-24 02:00:00,71.4,68.6,29.86,East,90,2.0,4.0,91,0.00,,,0.00,LWC V2.10 B1813,2013-08-24 06:00:00,
2013-08-24 02:10:00,71.4,68.6,29.86,East,90,2.0,4.0,91,0.00,,,0.00,LWC V2.10 B1813,2013-08-24 06:10:00,
2013-08-24 02:20:00,71.4,68.6,29.86,East,90,2.0,4.0,91,0.00,,,0.00,LWC V2.10 B1813,2013-08-24 06:20:00,
2013-08-24 02:30:00,71.4,68.6,29.86,East,90,2.0,4.0,91,0.00,,,0.00,LWC V2.10 B1813,2013-08-24 06:30:00,
2013-08-24 02:40:00,71.4,68.6,29.86,East,90,2.0,4.0,91,0.00,,,0.00,LWC V2.10 B1813,2013-08-24 06:40:00,
2013-08-24 02:50:00,71.4,68.6,29.86,East,90,2.0,4.0,91,0.00,,,0.00,LWC V2.10 B1813,2013-08-24 06:50:00,
2013-08-24 03:00:00,71.4,68.6,29.86,East,90,2.0,4.0,91,0.00,,,0.00,LWC V2.10 B1813,2013-08-24 07:00:00,
2013-08-24 03:10:00,71.4,68.6,29.86,East,90,2.0,4.0,91,0.00,,,0.00,LWC V2.10 B1813,2013-08-24 07:10:00,
2013-08-24 03:20:00,71.4,68.6,29.86,East,90,2.0,4.0,91,0.00,,,0.00,LWC V2.10 B1813,2013-08-24 07:20:00,
2013-08-24 03:30:00,71.4,68.6,29.86,East,90,2.0,4.0,91,0.00,,,0.00,LWC V2.10 B1813,2013-08-24 07:30:00,
2013-08-24 03:40:00,71.4,68.6,29.86,East,90,2.0,4.0,91,0.00,,,0.00,LWC V2.10 B1813,2013-08-24 07:40:00,
2013-08-24 03:50:00,71.4,68.6,29.86,East,90,2.0,4.0,91,0.00,,,0.00,LWC V2.10 B1813,2013-08-24 07:50:00,
2013-08-24 04:00:00,71.4,68.6,29.86,East,90,2.0,4.0,91,0.00,,,0.00,LWC V2.10 B1813,2013-08-24 08:00:00,
2013-08-24 04:10:00,71.4,68.6,29.86,East,90,2.0,4.0,91,0.00,,,0.00,LWC V2.10 B1813,2013-08-24 08:10:00,
2013-08-24 04:20:00,71.4,68.6,29.86,East,90,2.0,4.0,91,0.00,,,0.00,LWC V2.10 B1813,2013-08-24 08:20:00,
2013-08-24 04:30:00,71.4,68.6,29.86,East,90,2.0,4.0,91,0.00,,,0.00,LWC V2.10 B1813,2013-08-24 08:30:00,
2013-08-24 04:40:00,71.4,68.6,29.86,East,90,2.0,4.0,91,0.00,,,0.00,LWC V2.10 B1813,2013-08-24 08:40:00,
2013-08-24 04:50:00,71.4,68.6,29.86,East,90,2.0,4.0,91,0.00,,,0.00,LWC V2.10 B1813,2013-08-24 08:50:00,
2013-08-24 05:00:00,71.4,68.6,29.86,East,90,2.0,4.0,91,0.00,,,0.00,LWC V2.10 B1813,2013-08-24 09:00:00,
2013-08-24 05:10:00,71.4,68.6,29.86,East,90,2.0,4.0,91,0.00,,,0.00,LWC V2.10 B1813,2013-08-24 09:10:00,
2013-08-24 05:20:00,71.4,68.6,29.86,East,90,2.0,4.0,91,0.00,,,0.00,LWC V2.10 B1813,2013-08-24 09:20:00,
2013-08-24 05:30:00,71.4,68.6,29.86,East,90,2.0,4.0,91,0.00,,,0.00,LWC V2.10 B1813,2013-08-24 09:30:00,
2013-08-24 05:40:00,71.4,68.6,29.86,East,90,2.0,4.0,91,0.00,,,0.00,LWC V2.10 B1813,2013-08-24 09:40:00,
2013-08-24 05:50:00,71.4,68.6,29.86,East,90,2.0,4.0,91,0.00,,,0.00,LWC V2.10 B1813,2013-08-24 09:50:00,
2013-08-24 06:04:00,63.8,57.9,30.18,NNW,338,8.0,13.0,81,0.00,,,0.00,LWC V2.10 B1813,2013-08-24 10:04:00,
2013-08-24 06:09:00,63.7,57.8,30.18,NNE,22,5.0,10.0,81,0.00,,,0.00,LWC V2.10 B1813,2013-08-24 10:09:00,
2013-08-24 06:14:00,63.6,57.7,30.18,NW,322,4.0,9.0,81,0.00,,,0.00,LWC V2.10 B1813,2013-08-24 10:14:00,
2013-08-24 06:20:00,63.5,57.9,30.19,NW,311,1.0,10.0,82,0.00,,,0.00,LWC V2.10 B1813,2013-08-24 10:20:00,
2013-08-24 06:25:00,63.4,57.8,30.19,NNW,330,6.0,9.0,82,0.00,,,0.00,LWC V2.10 B1813,2013-08-24 10:25:00,
2013-08-24 06:30:00,63.5,57.6,30.19,NE,34,5.0,6.0,81,0.00,,,0.00,LWC V2.10 B1813,2013-08-24 10:30:00,
2013-08-24 06:35:00,63.6,57.7,30.19,NNW,333,7.0,11.0,81,0.00,,,0.00,LWC V2.10 B1813,2013-08-24 10:35:00,
2013-08-24 06:41:00,63.7,57.8,30.19,NW,310,4.0,13.0,81,0.00,,,0.00,LWC V2.10 B1813,2013-08-24 10:41:00,
2013-08-24 06:46:00,63.7,57.4,30.20,NNW,342,6.0,13.0,80,0.00,,,0.00,LWC V2.10 B1813,2013-08-24 10:46:00,
2013-08-24 06:51:00,63.7,57.4,30.20,NNW,341,5.0,10.0,80,0.00,,,0.00,LWC V2.10 B1813,2013-08-24 10:51:00,
2013-08-24 06:56:00,63.7,57.4,30.20,NNW,331,5.0,9.0,80,0.00,,,0.00,LWC V2.10 B1813,2013-08-24 10:56:00,
2013-08-24 07:02:00,63.8,57.5,30.20,NNW,342,9.0,12.0,80,0.00,,,0.00,LWC V2.10 B1813,2013-08-24 11:02:00,
2013-08-24 07:07:00,63.9,57.6,30.20,North,350,7.0,9.0,80,0.00,,,0.00,LWC V2.10 B1813,2013-08-24 11:07:00,
2013-08-24 07:12:00,64.1,57.8,30.21,NNW,347,6.0,12.0,80,0.00,,,0.00,LWC V2.10 B1813,2013-08-24 11:12:00,
2013-08-24 07:17:00,64.2,57.5,30.21,NNW,329,6.0,14.0,79,0.00,,,0.00,LWC V2.10 B1813,2013-08-24 11:17:00,
2013-08-24 07:23:00,64.4,57.7,30.21,NNW,337,2.0,8.0,79,0.00,,,0.00,LWC V2.10 B1813,2013-08-24 11:23:00,
2013-08-24 07:28:00,64.5,57.5,30.21,NW,319,11.0,13.0,78,0.00,,,0.00,LWC V2.10 B1813,2013-08-24 11:28:00,
2013-08-24 07:33:00,64.7,58.0,30.21,NNE,16,2.0,9.0,79,0.00,,,0.00,LWC V2.10 B1813,2013-08-24 11:33:00,
2013-08-24 07:38:00,64.8,57.8,30.22,NW,310,6.0,9.0,78,0.00,,,0.00,LWC V2.10 B1813,2013-08-24 11:38:00,
2013-08-24 07:44:00,64.9,57.9,30.22,North,355,10.0,10.0,78,0.00,,,0.00,LWC V2.10 B1813,2013-08-24 11:44:00,
2013-08-24 07:49:00,64.9,57.9,30.22,North,5,8.0,16.0,78,0.00,,,0.00,LWC V2.10 B1813,2013-08-24 11:49:00,
2013-08-24 07:54:00,65.0,58.0,30.22,North,5,11.0,12.0,78,0.00,,,0.00,LWC V2.10 B1813,2013-08-24 11:54:00,
2013-08-24 07:59:00,65.2,58.2,30.22,WNW,297,4.0,7.0,78,0.00,,,0.00,LWC V2.10 B1813,2013-08-24 11:59:00,
2013-08-24 08:05:00,65.4,58.4,30.23,North,355,3.0,12.0,78,0.00,,,0.00,LWC V2.10 B1813,2013-08-24 12:05:00,
2013-08-24 08:10:00,65.6,58.2,30.23,North,5,6.0,13.0,77,0.00,,,0.00,LWC V2.10 B1813,2013-08-24 12:10:00,
2013-08-24 08:15:00,65.8,58.4,30.22,NNW,331,3.0,9.0,77,0.00,,,0.00,LWC V2.10 B1813,2013-08-24 12:15:00,
2013-08-24 08:20:00,66.1,58.7,30.23,NNW,331,2.0,7.0,77,0.00,,,0.00,LWC V2.10 B1813,2013-08-24 12:20:00,
2013-08-24 08:26:00,66.3,58.9,30.23,North,9,4.0,10.0,77,0.00,,,0.00,LWC V2.10 B1813,2013-08-24 12:26:00,
2013-08-24 08:31:00,66.3,58.5,30.23,West,275,3.0,9.0,76,0.00,,,0.00,LWC V2.10 B1813,2013-08-24 12:31:00,
2013-08-24 08:36:00,66.4,59.0,30.23,NNW,346,0.0,11.0,77,0.00,,,0.00,LWC V2.10 B1813,2013-08-24 12:36:00,
2013-08-24 08:41:00,66.8,59.3,30.23,WNW,296,1.0,8.0,77,0.00,,,0.00,LWC V2.10 B1813,2013-08-24 12:41:00,
2013-08-24 08:47:00,67.1,59.6,30.23,NNW,335,1.0,3.0,77,0.00,,,0.00,LWC V2.10 B1813,2013-08-24 12:47:00,
2013-08-24 08:52:00,67.4,59.6,30.23,WNW,298,3.0,5.0,76,0.00,,,0.00,LWC V2.10 B1813,2013-08-24 12:52:00,
2013-08-24 08:57:00,67.6,59.8,30.24,NNW,343,5.0,10.0,76,0.00,,,0.00,LWC V2.10 B1813,2013-08-24 12:57:00,
2013-08-24 09:02:00,67.7,59.9,30.24,NW,309,7.0,10.0,76,0.00,,,0.00,LWC V2.10 B1813,2013-08-24 13:02:00,
2013-08-24 09:08:00,67.6,59.4,30.24,NW,325,3.0,11.0,75,0.00,,,0.00,LWC V2.10 B1813,2013-08-24 13:08:00,
2013-08-24 09:13:00,67.8,60.3,30.24,North,5,0.0,6.0,77,0.00,,,0.00,LWC V2.10 B1813,2013-08-24 13:13:00,
2013-08-24 09:18:00,68.2,60.3,30.24,NE,49,7.0,9.0,76,0.00,,,0.00,LWC V2.10 B1813,2013-08-24 13:18:00,
2013-08-24 09:23:00,68.1,59.9,30.24,WNW,295,0.0,9.0,75,0.00,,,0.00,LWC V2.10 B1813,2013-08-24 13:23:00,
2013-08-24 09:29:00,68.3,60.4,30.24,NNE,19,0.0,9.0,76,0.00,,,0.00,LWC V2.10 B1813,2013-08-24 13:29:00,
2013-08-24 09:34:00,68.5,60.3,30.25,NW,309,2.0,9.0,75,0.00,,,0.00,LWC V2.10 B1813,2013-08-24 13:34:00,
2013-08-24 09:39:00,68.7,60.4,30.25,North,11,8.0,10.0,75,0.00,,,0.00,LWC V2.10 B1813,2013-08-24 13:39:00,
2013-08-24 09:44:00,68.8,60.9,30.25,NNE,17,8.0,8.0,76,0.00,,,0.00,LWC V2.10 B1813,2013-08-24 13:44:00,
2013-08-24 09:50:00,69.3,61.0,30.25,NNW,333,4.0,9.0,75,0.00,,,0.00,LWC V2.10 B1813,2013-08-24 13:50:00,
2013-08-24 09:55:00,69.2,60.9,30.26,NNE,22,1.0,8.0,75,0.00,,,0.00,LWC V2.10 B1813,2013-08-24 13:55:00,
2013-08-24 10:00:00,69.4,60.7,30.26,NW,321,2.0,7.0,74,0.00,,,0.00,LWC V2.10 B1813,2013-08-24 14:00:00,
2013-08-24 10:05:00,69.6,60.9,30.26,NW,314,0.0,11.0,74,0.00,,,0.00,LWC V2.10 B1813,2013-08-24 14:05:00,
2013-08-24 10:11:00,69.5,60.5,30.26,NNE,22,4.0,8.0,73,0.00,,,0.00,LWC V2.10 B1813,2013-08-24 14:11:00,
2013-08-24 10:16:00,69.8,60.7,30.26,North,351,5.0,8.0,73,0.00,,,0.00,LWC V2.10 B1813,2013-08-24 14:16:00,
2013-08-24 10:21:00,70.1,61.4,30.26,North,0,7.0,7.0,74,0.00,,,0.00,LWC V2.10 B1813,2013-08-24 14:21:00,
2013-08-24 10:26:00,70.6,61.5,30.27,NE,44,3.0,8.0,73,0.00,,,0.00,LWC V2.10 B1813,2013-08-24 14:26:00,
2013-08-24 10:32:00,70.7,61.6,30.27,NNW,327,10.0,10.0,73,0.00,,,0.00,LWC V2.10 B1813,2013-08-24 14:32:00,
2013-08-24 10:37:00,70.5,61.4,30.27,NNW,331,3.0,8.0,73,0.00,,,0.00,LWC V2.10 B1813,2013-08-24 14:37:00,
2013-08-24 10:42:00,70.9,61.4,30.27,NW,317,3.0,9.0,72,0.00,,,0.00,LWC V2.10 B1813,2013-08-24 14:42:00,
2013-08-24 10:47:00,71.2,61.3,30.27,NNE,17,2.0,7.0,71,0.00,,,0.00,LWC V2.10 B1813,2013-08-24 14:47:00,
2013-08-24 10:53:00,71.1,60.8,30.27,NE,42,5.0,8.0,70,0.00,,,0.00,LWC V2.10 B1813,2013-08-24 14:53:00,
2013-08-24 10:58:00,71.0,61.1,30.27,North,355,4.0,10.0,71,0.00,,,0.00,LWC V2.10 B1813,2013-08-24 14:58:00,
2013-08-24 11:03:00,71.2,60.9,30.27,NNW,335,3.0,7.0,70,0.00,,,0.00,LWC V2.10 B1813,2013-08-24 15:03:00,
2013-08-24 11:08:00,71.3,61.0,30.27,NNE,32,4.0,10.0,70,0.00,,,0.00,LWC V2.10 B1813,2013-08-24 15:08:00,
2013-08-24 11:14:00,71.8,61.5,30.27,NW,307,3.0,7.0,70,0.00,,,0.00,LWC V2.10 B1813,2013-08-24 15:14:00,
2013-08-24 11:19:00,72.1,60.9,30.27,NNE,26,5.0,8.0,68,0.00,,,0.00,LWC V2.10 B1813,2013-08-24 15:19:00,
2013-08-24 11:24:00,72.2,61.4,30.27,NE,34,1.0,6.0,69,0.00,,,0.00,LWC V2.10 B1813,2013-08-24 15:24:00,
2013-08-24 11:29:00,72.2,60.6,30.27,North,5,0.0,9.0,67,0.00,,,0.00,LWC V2.10 B1813,2013-08-24 15:29:00,
2013-08-24 11:35:00,72.3,60.7,30.27,NE,40,6.0,7.0,67,0.00,,,0.00,LWC V2.10 B1813,2013-08-24 15:35:00,
2013-08-24 11:40:00,72.4,61.2,30.27,West,278,0.0,3.0,68,0.00,,,0.00,LWC V2.10 B1813,2013-08-24 15:40:00,
2013-08-24 11:45:00,72.9,61.3,30.27,NNW,345,0.0,6.0,67,0.00,,,0.00,LWC V2.10 B1813,2013-08-24 15:45:00,
2013-08-24 11:50:00,73.0,60.1,30.27,NW,321,7.0,8.0,64,0.00,,,0.00,LWC V2.10 B1813,2013-08-24 15:50:00,
2013-08-24 11:56:00,72.9,59.5,30.27,NE,56,6.0,12.0,63,0.00,,,0.00,LWC V2.10 B1813,2013-08-24 15:56:00,
2013-08-24 12:01:00,72.9,59.5,30.26,NNW,343,6.0,6.0,63,0.00,,,0.00,LWC V2.10 B1813,2013-08-24 16:01:00,
2013-08-24 12:06:00,72.8,59.0,30.26,NE,42,7.0,7.0,62,0.00,,,0.00,LWC V2.10 B1813,2013-08-24 16:06:00,
2013-08-24 12:11:00,73.1,60.2,30.27,NNE,17,4.0,5.0,64,0.00,,,0.00,LWC V2.10 B1813,2013-08-24 16:11:00,
2013-08-24 12:17:00,73.4,59.6,30.27,North,355,0.0,6.0,62,0.00,,,0.00,LWC V2.10 B1813,2013-08-24 16:17:00,
2013-08-24 12:22:00,73.9,59.6,30.27,NNW,328,0.0,7.0,61,0.00,,,0.00,LWC V2.10 B1813,2013-08-24 16:22:00,
2013-08-24 12:27:00,74.2,60.3,30.26,NNE,32,2.0,5.0,62,0.00,,,0.00,LWC V2.10 B1813,2013-08-24 16:27:00,
2013-08-24 12:32:00,74.1,60.2,30.26,NW,311,1.0,6.0,62,0.00,,,0.00,LWC V2.10 B1813,2013-08-24 16:32:00,
2013-08-24 12:38:00,73.9,60.0,30.27,ENE,73,4.0,4.0,62,0.00,,,0.00,LWC V2.10 B1813,2013-08-24 16:38:00,
2013-08-24 12:43:00,73.6,59.8,30.27,NE,56,0.0,6.0,62,0.00,,,0.00,LWC V2.10 B1813,2013-08-24 16:43:00,
2013-08-24 12:48:00,74.0,60.6,30.27,NNW,345,0.0,5.0,63,0.00,,,0.00,LWC V2.10 B1813,2013-08-24 16:48:00,
2013-08-24 12:53:00,74.2,60.3,30.27,NNE,19,4.0,6.0,62,0.00,,,0.00,LWC V2.10 B1813,2013-08-24 16:53:00,
2013-08-24 12:59:00,74.1,60.7,30.27,North,5,0.0,3.0,63,0.00,,,0.00,LWC V2.10 B1813,2013-08-24 16:59:00,
2013-08-24 13:04:00,74.6,61.6,30.27,NNE,18,2.0,3.0,64,0.00,,,0.00,LWC V2.10 B1813,2013-08-24 17:04:00,
2013-08-24 13:10:00,74.8,60.9,30.27,North,355,1.0,6.0,62,0.00,,,0.00,LWC V2.10 B1813,2013-08-24 17:10:00,
2013-08-24 13:15:00,75.0,61.1,30.27,NNE,30,1.0,2.0,62,0.00,,,0.00,LWC V2.10 B1813,2013-08-24 17:15:00,
2013-08-24 13:20:00,75.0,60.6,30.27,NNW,337,0.0,4.0,61,0.00,,,0.00,LWC V2.10 B1813,2013-08-24 17:20:00,
2013-08-24 13:25:00,75.1,61.6,30.27,NNE,21,3.0,7.0,63,0.00,,,0.00,LWC V2.10 B1813,2013-08-24 17:25:00,
2013-08-24 13:31:00,75.3,61.4,30.27,NNE,21,0.0,3.0,62,0.00,,,0.00,LWC V2.10 B1813,2013-08-24 17:31:00,
2013-08-24 13:36:00,75.6,60.7,30.27,East,85,0.0,4.0,60,0.00,,,0.00,LWC V2.10 B1813,2013-08-24 17:36:00,
2013-08-24 13:41:00,75.1,60.2,30.27,East,96,0.0,5.0,60,0.00,,,0.00,LWC V2.10 B1813,2013-08-24 17:41:00,
2013-08-24 13:46:00,74.5,60.6,30.27,ENE,69,0.0,5.0,62,0.00,,,0.00,LWC V2.10 B1813,2013-08-24 17:46:00,
2013-08-24 13:52:00,74.6,60.7,30.27,NE,49,6.0,7.0,62,0.00,,,0.00,LWC V2.10 B1813,2013-08-24 17:52:00,
2013-08-24 13:57:00,74.6,60.7,30.27,NE,49,2.0,2.0,62,0.00,,,0.00,LWC V2.10 B1813,2013-08-24 17:57:00,
2013-08-24 14:02:00,74.8,61.3,30.27,North,0,3.0,3.0,63,0.00,,,0.00,LWC V2.10 B1813,2013-08-24 18:02:00,
2013-08-24 14:07:00,75.2,61.3,30.27,ENE,76,6.0,6.0,62,0.00,,,0.00,LWC V2.10 B1813,2013-08-24 18:07:00,
2013-08-24 14:13:00,74.9,61.0,30.27,NNE,26,2.0,5.0,62,0.00,,,0.00,LWC V2.10 B1813,2013-08-24 18:13:00,
2013-08-24 14:18:00,75.5,62.0,30.27,North,355,2.0,2.0,63,0.00,,,0.00,LWC V2.10 B1813,2013-08-24 18:18:00,
2013-08-24 14:23:00,75.7,61.3,30.27,ENE,58,1.0,7.0,61,0.00,,,0.00,LWC V2.10 B1813,2013-08-24 18:23:00,
2013-08-24 14:28:00,75.5,61.1,30.27,NNE,31,1.0,5.0,61,0.00,,,0.00,LWC V2.10 B1813,2013-08-24 18:28:00,
2013-08-24 14:34:00,75.4,60.5,30.27,NNE,32,3.0,7.0,60,0.00,,,0.00,LWC V2.10 B1813,2013-08-24 18:34:00,
2013-08-24 14:39:00,75.2,60.3,30.27,NNE,32,0.0,3.0,60,0.00,,,0.00,LWC V2.10 B1813,2013-08-24 18:39:00,
2013-08-24 14:44:00,75.3,60.4,30.27,NNE,32,0.0,2.0,60,0.00,,,0.00,LWC V2.10 B1813,2013-08-24 18:44:00,
2013-08-24 14:49:00,75.5,61.1,30.27,NE,48,2.0,3.0,61,0.00,,,0.00,LWC V2.10 B1813,2013-08-24 18:49:00,
2013-08-24 14:55:00,75.7,60.8,30.27,NE,52,3.0,6.0,60,0.00,,,0.00,LWC V2.10 B1813,2013-08-24 18:55:00,
2013-08-24 15:00:00,75.7,60.8,30.27,NE,52,0.0,0.0,60,0.00,,,0.00,LWC V2.10 B1813,2013-08-24 19:00:00,
2013-08-24 15:05:00,75.4,61.0,30.27,NE,53,0.0,2.0,61,0.00,,,0.00,LWC V2.10 B1813,2013-08-24 19:05:00,
2013-08-24 15:10:00,75.4,61.5,30.27,NE,53,0.0,0.0,62,0.00,,,0.00,LWC V2.10 B1813,2013-08-24 19:10:00,
2013-08-24 15:16:00,75.4,61.0,30.27,NE,53,0.0,1.0,61,0.00,,,0.00,LWC V2.10 B1813,2013-08-24 19:16:00,
2013-08-24 15:21:00,75.1,61.2,30.26,NE,53,0.0,2.0,62,0.00,,,0.00,LWC V2.10 B1813,2013-08-24 19:21:00,
2013-08-24 15:26:00,74.9,61.4,30.26,NNW,346,1.0,3.0,63,0.00,,,0.00,LWC V2.10 B1813,2013-08-24 19:26:00,
2013-08-24 15:31:00,75.1,61.2,30.27,ENE,57,0.0,1.0,62,0.00,,,0.00,LWC V2.10 B1813,2013-08-24 19:31:00,
2013-08-24 15:37:00,75.1,61.2,30.27,NE,35,0.0,6.0,62,0.00,,,0.00,LWC V2.10 B1813,2013-08-24 19:37:00,
2013-08-24 15:42:00,75.6,61.6,30.26,NNW,348,0.0,0.0,62,0.00,,,0.00,LWC V2.10 B1813,2013-08-24 19:42:00,
2013-08-24 15:47:00,75.9,60.5,30.27,NNE,30,2.0,5.0,59,0.00,,,0.00,LWC V2.10 B1813,2013-08-24 19:47:00,
2013-08-24 15:52:00,75.9,60.5,30.27,NNE,30,1.0,3.0,59,0.00,,,0.00,LWC V2.10 B1813,2013-08-24 19:52:00,
2013-08-24 15:58:00,76.1,61.2,30.27,NNE,30,0.0,3.0,60,0.00,,,0.00,LWC V2.10 B1813,2013-08-24 19:58:00,
2013-08-24 16:03:00,76.7,61.3,30.27,NNE,30,0.0,3.0,59,0.00,,,0.00,LWC V2.10 B1813,2013-08-24 20:03:00,
2013-08-24 16:08:00,76.5,60.6,30.27,NNE,30,0.0,1.0,58,0.00,,,0.00,LWC V2.10 B1813,2013-08-24 20:08:00,
2013-08-24 16:13:00,76.4,60.0,30.27,NNE,30,0.0,3.0,57,0.00,,,0.00,LWC V2.10 B1813,2013-08-24 20:13:00,
2013-08-24 16:19:00,76.3,61.4,30.27,NNE,30,0.0,1.0,60,0.00,,,0.00,LWC V2.10 B1813,2013-08-24 20:19:00,
2013-08-24 16:24:00,76.4,60.0,30.27,NE,46,3.0,6.0,57,0.00,,,0.00,LWC V2.10 B1813,2013-08-24 20:24:00,
2013-08-24 16:29:00,76.1,60.2,30.27,NE,46,2.0,3.0,58,0.00,,,0.00,LWC V2.10 B1813,2013-08-24 20:29:00,
2013-08-24 16:34:00,75.7,60.3,30.27,NE,46,0.0,2.0,59,0.00,,,0.00,LWC V2.10 B1813,2013-08-24 20:34:00,
2013-08-24 16:40:00,75.8,60.4,30.27,NE,46,3.0,4.0,59,0.00,,,0.00,LWC V2.10 B1813,2013-08-24 20:40:00,
2013-08-24 16:45:00,76.0,60.1,30.27,NNW,342,0.0,3.0,58,0.00,,,0.00,LWC V2.10 B1813,2013-08-24 20:45:00,
2013-08-24 16:50:00,76.5,60.1,30.27,NNE,18,2.0,4.0,57,0.00,,,0.00,LWC V2.10 B1813,2013-08-24 20:50:00,
2013-08-24 16:55:00,76.7,59.8,30.27,NNE,18,0.0,4.0,56,0.00,,,0.00,LWC V2.10 B1813,2013-08-24 20:55:00,
2013-08-24 17:01:00,77.4,60.5,30.27,NNE,18,0.0,2.0,56,0.00,,,0.00,LWC V2.10 B1813,2013-08-24 21:01:00,
2013-08-24 17:06:00,77.6,59.6,30.27,NNE,18,0.0,1.0,54,0.00,,,0.00,LWC V2.10 B1813,2013-08-24 21:06:00,
2013-08-24 17:11:00,77.5,62.0,30.27,NNE,18,2.0,3.0,59,0.00,,,0.00,LWC V2.10 B1813,2013-08-24 21:11:00,
2013-08-24 17:16:00,76.2,62.7,30.27,NNE,18,0.0,2.0,63,0.00,,,0.00,LWC V2.10 B1813,2013-08-24 21:16:00,
2013-08-24 17:22:00,75.0,62.4,30.27,SSE,150,5.0,5.0,65,0.00,,,0.00,LWC V2.10 B1813,2013-08-24 21:22:00,
2013-08-24 17:27:00,74.3,62.6,30.27,SSW,197,5.0,9.0,67,0.00,,,0.00,LWC V2.10 B1813,2013-08-24 21:27:00,
2013-08-24 17:32:00,73.1,62.3,30.27,ESE,121,4.0,7.0,69,0.00,,,0.00,LWC V2.10 B1813,2013-08-24 21:32:00,
2013-08-24 17:37:00,72.6,62.2,30.27,SSE,167,4.0,9.0,70,0.00,,,0.00,LWC V2.10 B1813,2013-08-24 21:37:00,
2013-08-24 17:43:00,72.3,62.4,30.27,SSE,151,4.0,5.0,71,0.00,,,0.00,LWC V2.10 B1813,2013-08-24 21:43:00,
2013-08-24 17:48:00,72.3,62.4,30.27,SE,144,2.0,7.0,71,0.00,,,0.00,LWC V2.10 B1813,2013-08-24 21:48:00,
2013-08-24 17:53:00,72.2,62.7,30.27,SE,131,7.0,7.0,72,0.00,,,0.00,LWC V2.10 B1813,2013-08-24 21:53:00,
2013-08-24 17:58:00,72.0,62.5,30.27,SE,132,2.0,4.0,72,0.00,,,0.00,LWC V2.10 B1813,2013-08-24 21:58:00,
2013-08-24 18:04:00,71.8,62.3,30.27,ESE,123,2.0,5.0,72,0.00,,,0.00,LWC V2.10 B1813,2013-08-24 22:04:00,
2013-08-24 18:09:00,71.7,62.6,30.27,ESE,120,2.0,6.0,73,0.00,,,0.00,LWC V2.10 B1813,2013-08-24 22:09:00,
2013-08-24 18:14:00,71.5,62.4,30.27,SE,128,1.0,2.0,73,0.00,,,0.00,LWC V2.10 B1813,2013-08-24 22:14:00,
2013-08-24 18:19:00,71.3,62.2,30.27,East,95,4.0,5.0,73,0.00,,,0.00,LWC V2.10 B1813,2013-08-24 22:19:00,
2013-08-24 18:25:00,71.4,62.7,30.27,East,101,0.0,4.0,74,0.00,,,0.00,LWC V2.10 B1813,2013-08-24 22:25:00,
2013-08-24 18:30:00,71.1,62.0,30.27,SSE,155,6.0,7.0,73,0.00,,,0.00,LWC V2.10 B1813,2013-08-24 22:30:00,
2013-08-24 18:35:00,70.9,61.8,30.28,SE,141,0.0,4.0,73,0.00,,,0.00,LWC V2.10 B1813,2013-08-24 22:35:00,
2013-08-24 18:40:00,70.8,61.7,30.28,SSE,148,6.0,6.0,73,0.00,,,0.00,LWC V2.10 B1813,2013-08-24 22:40:00,
2013-08-24 18:46:00,70.6,61.5,30.28,SE,131,1.0,5.0,73,0.00,,,0.00,LWC V2.10 B1813,2013-08-24 22:46:00,
2013-08-24 18:51:00,70.4,61.3,30.28,SE,131,0.0,1.0,73,0.00,,,0.00,LWC V2.10 B1813,2013-08-24 22:51:00,
2013-08-24 18:56:00,70.2,61.1,30.28,SE,131,0.0,0.0,73,0.00,,,0.00,LWC V2.10 B1813,2013-08-24 22:56:00,
2013-08-24 19:01:00,70.0,60.9,30.28,SE,131,1.0,1.0,73,0.00,,,0.00,LWC V2.10 B1813,2013-08-24 23:01:00,
2013-08-24 19:07:00,69.6,60.2,30.28,SE,131,0.0,1.0,72,0.00,,,0.00,LWC V2.10 B1813,2013-08-24 23:07:00,
2013-08-24 19:12:00,69.4,60.0,30.28,SE,131,1.0,2.0,72,0.00,,,0.00,LWC V2.10 B1813,2013-08-24 23:12:00,
2013-08-24 19:17:00,69.0,59.6,30.29,SE,143,0.0,0.0,72,0.00,,,0.00,LWC V2.10 B1813,2013-08-24 23:17:00,
2013-08-24 19:22:00,68.7,59.3,30.28,SE,143,0.0,0.0,72,0.00,,,0.00,LWC V2.10 B1813,2013-08-24 23:22:00,
2013-08-24 19:28:00,68.5,59.5,30.28,SE,143,0.0,0.0,73,0.00,,,0.00,LWC V2.10 B1813,2013-08-24 23:28:00,
2013-08-24 19:33:00,68.2,59.2,30.29,SE,143,0.0,0.0,73,0.00,,,0.00,LWC V2.10 B1813,2013-08-24 23:33:00,
2013-08-24 19:38:00,68.0,59.4,30.29,SE,143,0.0,0.0,74,0.00,,,0.00,LWC V2.10 B1813,2013-08-24 23:38:00,
2013-08-24 19:43:00,67.8,58.8,30.29,SE,143,0.0,1.0,73,0.00,,,0.00,LWC V2.10 B1813,2013-08-24 23:43:00,
2013-08-24 19:49:00,67.6,58.2,30.29,SE,143,0.0,1.0,72,0.00,,,0.00,LWC V2.10 B1813,2013-08-24 23:49:00,
2013-08-24 19:54:00,67.4,58.0,30.29,SE,143,0.0,0.0,72,0.00,,,0.00,LWC V2.10 B1813,2013-08-24 23:54:00,
2013-08-24 19:59:00,67.4,58.0,30.29,SE,143,0.0,0.0,72,0.00,,,0.00,LWC V2.10 B1813,2013-08-24 23:59:00,
2013-08-24 20:04:00,67.3,58.3,30.30,SE,143,0.0,0.0,73,0.00,,,0.00,LWC V2.10 B1813,2013-08-25 00:04:00,
2013-08-24 20:10:00,67.1,58.1,30.30,SE,143,0.0,0.0,73,0.00,,,0.00,LWC V2.10 B1813,2013-08-25 00:10:00,
2013-08-24 20:15:00,66.9,58.3,30.30,SE,143,0.0,0.0,74,0.00,,,0.00,LWC V2.10 B1813,2013-08-25 00:15:00,
2013-08-24 20:20:00,66.7,58.1,30.30,SE,143,0.0,0.0,74,0.00,,,0.00,LWC V2.10 B1813,2013-08-25 00:20:00,
2013-08-24 20:25:00,66.5,57.9,30.30,SE,143,0.0,0.0,74,0.00,,,0.00,LWC V2.10 B1813,2013-08-25 00:25:00,
2013-08-24 20:31:00,66.4,58.2,30.31,SE,143,0.0,0.0,75,0.00,,,0.00,LWC V2.10 B1813,2013-08-25 00:31:00,
2013-08-24 20:36:00,66.2,58.0,30.31,SE,143,0.0,0.0,75,0.00,,,0.00,LWC V2.10 B1813,2013-08-25 00:36:00,
2013-08-24 20:41:00,66.0,57.8,30.31,SE,143,0.0,0.0,75,0.00,,,0.00,LWC V2.10 B1813,2013-08-25 00:41:00,
2013-08-24 20:46:00,66.0,57.8,30.31,SE,143,0.0,0.0,75,0.00,,,0.00,LWC V2.10 B1813,2013-08-25 00:46:00,
2013-08-24 20:52:00,65.9,58.1,30.31,SE,143,0.0,0.0,76,0.00,,,0.00,LWC V2.10 B1813,2013-08-25 00:52:00,
2013-08-24 20:57:00,65.8,58.4,30.31,SE,143,0.0,0.0,77,0.00,,,0.00,LWC V2.10 B1813,2013-08-25 00:57:00,
2013-08-24 21:02:00,65.8,58.4,30.32,SE,143,0.0,0.0,77,0.00,,,0.00,LWC V2.10 B1813,2013-08-25 01:02:00,
2013-08-24 21:07:00,65.8,58.4,30.32,SE,143,0.0,0.0,77,0.00,,,0.00,LWC V2.10 B1813,2013-08-25 01:07:00,
2013-08-24 21:13:00,65.8,58.7,30.32,SE,143,0.0,0.0,78,0.00,,,0.00,LWC V2.10 B1813,2013-08-25 01:13:00,
2013-08-24 21:18:00,65.8,58.7,30.32,SE,143,0.0,0.0,78,0.00,,,0.00,LWC V2.10 B1813,2013-08-25 01:18:00,
2013-08-24 21:23:00,65.6,58.5,30.32,SE,143,0.0,0.0,78,0.00,,,0.00,LWC V2.10 B1813,2013-08-25 01:23:00,
2013-08-24 21:28:00,65.6,58.2,30.32,SE,143,0.0,0.0,77,0.00,,,0.00,LWC V2.10 B1813,2013-08-25 01:28:00,
2013-08-24 21:34:00,65.6,58.5,30.32,SE,143,0.0,0.0,78,0.00,,,0.00,LWC V2.10 B1813,2013-08-25 01:34:00,
2013-08-24 21:39:00,65.7,58.6,30.32,SE,143,0.0,0.0,78,0.00,,,0.00,LWC V2.10 B1813,2013-08-25 01:39:00,
2013-08-24 21:44:00,65.7,58.6,30.32,SE,143,0.0,0.0,78,0.00,,,0.00,LWC V2.10 B1813,2013-08-25 01:44:00,
2013-08-24 21:49:00,65.6,58.5,30.32,SE,143,0.0,0.0,78,0.00,,,0.00,LWC V2.10 B1813,2013-08-25 01:49:00,
2013-08-24 21:55:00,65.4,58.7,30.33,SE,143,0.0,0.0,79,0.00,,,0.00,LWC V2.10 B1813,2013-08-25 01:55:00,
2013-08-24 22:00:00,65.4,58.7,30.33,SE,143,0.0,0.0,79,0.00,,,0.00,LWC V2.10 B1813,2013-08-25 02:00:00,
2013-08-24 22:05:00,65.2,58.5,30.33,SE,143,0.0,0.0,79,0.00,,,0.00,LWC V2.10 B1813,2013-08-25 02:05:00,
2013-08-24 22:10:00,65.3,59.0,30.33,SE,143,0.0,1.0,80,0.00,,,0.00,LWC V2.10 B1813,2013-08-25 02:10:00,
2013-08-24 22:16:00,65.3,59.0,30.33,SE,143,0.0,0.0,80,0.00,,,0.00,LWC V2.10 B1813,2013-08-25 02:16:00,
2013-08-24 22:21:00,65.4,58.7,30.33,SE,143,0.0,0.0,79,0.00,,,0.00,LWC V2.10 B1813,2013-08-25 02:21:00,
2013-08-24 22:26:00,65.8,58.4,30.33,SE,143,0.0,2.0,77,0.00,,,0.00,LWC V2.10 B1813,2013-08-25 02:26:00,
2013-08-24 22:31:00,66.0,58.2,30.33,SE,143,0.0,0.0,76,0.00,,,0.00,LWC V2.10 B1813,2013-08-25 02:31:00,
2013-08-24 22:37:00,66.2,58.4,30.33,SE,143,0.0,0.0,76,0.00,,,0.00,LWC V2.10 B1813,2013-08-25 02:37:00,
2013-08-24 22:42:00,66.3,58.5,30.33,SE,143,0.0,0.0,76,0.00,,,0.00,LWC V2.10 B1813,2013-08-25 02:42:00,
2013-08-24 22:47:00,66.3,58.5,30.33,SE,143,0.0,0.0,76,0.00,,,0.00,LWC V2.10 B1813,2013-08-25 02:47:00,
2013-08-24 22:52:00,66.1,58.3,30.33,SE,143,0.0,0.0,76,0.00,,,0.00,LWC V2.10 B1813,2013-08-25 02:52:00,
2013-08-24 22:58:00,66.0,58.2,30.33,SE,143,0.0,0.0,76,0.00,,,0.00,LWC V2.10 B1813,2013-08-25 02:58:00,
2013-08-24 23:03:00,66.0,58.2,30.33,SE,143,0.0,0.0,76,0.00,,,0.00,LWC V2.10 B1813,2013-08-25 03:03:00,
2013-08-24 23:08:00,66.0,57.8,30.33,SE,143,0.0,0.0,75,0.00,,,0.00,LWC V2.10 B1813,2013-08-25 03:08:00,
2013-08-24 23:13:00,65.9,57.7,30.32,SE,143,0.0,0.0,75,0.00,,,0.00,LWC V2.10 B1813,2013-08-25 03:13:00,
2013-08-24 23:19:00,65.7,57.6,30.33,SE,143,0.0,0.0,75,0.00,,,0.00,LWC V2.10 B1813,2013-08-25 03:19:00,
2013-08-24 23:24:00,65.6,57.8,30.33,SE,143,0.0,0.0,76,0.00,,,0.00,LWC V2.10 B1813,2013-08-25 03:24:00,
2013-08-24 23:29:00,65.4,57.6,30.33,SE,143,0.0,0.0,76,0.00,,,0.00,LWC V2.10 B1813,2013-08-25 03:29:00,
2013-08-24 23:34:00,65.3,57.9,30.33,SE,143,0.0,0.0,77,0.00,,,0.00,LWC V2.10 B1813,2013-08-25 03:34:00,
2013-08-24 23:40:00,65.4,58.0,30.34,SE,143,0.0,0.0,77,0.00,,,0.00,LWC V2.10 B1813,2013-08-25 03:40:00,
2013-08-24 23:45:00,65.7,58.6,30.34,SE,143,0.0,1.0,78,0.00,,,0.00,LWC V2.10 B1813,2013-08-25 03:45:00,
2013-08-24 23:50:00,66.0,58.9,30.33,SE,143,0.0,0.0,78,0.00,,,0.00,LWC V2.10 B1813,2013-08-25 03:50:00,
2013-08-24 23:55:00,66.1,59.4,30.33,SE,143,0.0,1.0,79,0.00,,,0.00,LWC V2.10 B1813,2013-08-25 03:55:00,